RH
41 38 35 34 33 33 32 32 32 32 34 35 37 39 41 41 42 42 43 44 45 45 44 43 40 36 33 29 27 25 24 23 22 22 23 23 25 26 28 29 30 30 29 28 27 26 24 22 21 21 20 19 18 17 16 15 15 14 14 15 15 16 17 18 18 19 19 19 19 19 18 18 17 16 15 14 13 13 12 12 12 11 11 10 10 10
40 37 35 35 34 33 33 33 34 36 38 40 41 42 42 43 43 44 45 46 45 44 42 39 35 32 29 27 25 24 23 23 23 24 25 27 29 31 33 34 34 34 32 30 28 26 24 22 21 21 20 19 18 18 17 16 15 15 15 15 16 17 18 18 19 19 20 20 20 19 19 18 18 17 16 15 14 14 13 13 12 12 11 10 10 10
39 37 35 35 34 34 35 36 38 40 42 43 44 44 43 44 44 46 46 46 44 42 38 35 31 29 26 25 24 24 24 24 26 27 29 32 35 37 39 39 38 36 34 31 28 25 23 22 22 21 20 20 19 18 17 17 16 16 16 16 17 18 18 19 20 20 21 21 20 20 20 19 19 18 17 16 15 15 14 14 13 12 12 11 11 10
38 36 36 36 36 37 39 41 43 44 45 45 44 44 44 45 46 46 46 44 41 37 34 31 28 26 25 25 25 25 26 28 30 33 36 39 42 43 43 42 40 36 33 29 26 24 23 22 22 21 21 20 19 19 18 17 17 17 17 17 18 18 19 20 21 21 21 21 21 21 21 20 20 19 18 17 16 16 15 15 14 13 13 12 12 11
38 37 37 39 40 42 44 46 47 47 46 45 45 45 45 46 46 45 43 39 36 32 30 28 26 26 26 26 27 28 30 34 37 40 43 46 47 47 46 43 38 34 29 26 25 24 23 23 22 22 21 21 20 19 19 18 18 18 18 18 19 20 20 21 21 22 22 22 22 22 22 21 21 20 19 18 18 17 17 16 16 15 14 14 13 12
40 40 41 43 45 47 49 49 48 47 46 45 45 46 46 45 44 41 38 34 31 29 27 27 26 27 28 29 32 35 38 41 44 47 49 50 50 48 45 40 35 30 27 26 25 24 24 24 23 23 22 21 21 20 20 19 19 19 19 19 20 21 21 22 23 23 23 23 23 23 23 22 22 21 21 20 19 19 18 18 17 17 16 15 14 14
43 45 47 48 50 51 51 49 48 47 46 46 47 46 45 43 40 36 33 30 29 28 28 28 29 31 33 36 39 43 46 49 51 52 52 51 49 46 41 36 32 29 27 26 26 25 25 24 24 23 23 22 22 22 21 21 20 20 20 21 21 22 23 23 24 24 24 24 24 24 24 24 23 23 22 22 21 20 20 20 19 18 18 17 16 15
49 50 52 52 52 51 50 48 47 47 47 47 47 45 42 38 34 32 30 29 29 30 31 32 35 37 40 44 47 50 52 53 53 53 52 50 46 42 38 34 31 29 28 27 27 26 26 25 24 24 24 23 23 23 22 22 22 22 22 22 22 23 24 24 24 25 25 25 25 25 25 25 25 24 24 23 23 22 22 21 21 20 19 18 17 15
54 55 55 53 51 49 48 47 48 48 48 46 44 40 36 33 31 30 30 31 33 35 36 39 42 45 48 50 52 53 54 54 53 52 50 47 43 40 37 34 32 31 30 29 29 28 26 25 25 24 24 24 24 24 24 23 23 23 23 23 24 24 25 25 25 26 26 25 26 26 26 26 26 26 26 25 25 24 23 23 22 21 20 19 17 16
57 56 54 51 49 48 47 48 49 48 46 42 38 35 31 30 31 32 34 37 39 42 44 46 49 51 52 53 54 54 53 52 51 49 47 44 41 39 37 35 34 33 32 31 29 27 26 25 25 25 25 25 25 25 25 25 25 25 25 25 25 25 26 26 26 26 26 26 26 27 27 28 28 28 28 27 26 26 25 24 24 22 21 19 18 17
57 54 51 49 49 48 49 49 48 45 41 36 33 32 31 33 35 38 41 44 47 49 51 52 53 54 54 54 53 52 51 50 48 46 43 41 39 37 36 35 34 33 31 30 28 27 26 26 26 26 26 26 26 26 26 26 26 26 26 26 26 27 27 27 27 27 27 27 28 29 30 30 30 30 30 29 28 28 27 26 25 23 21 20 19 18
54 51 50 49 49 50 49 47 43 39 35 32 32 34 36 39 43 46 49 51 53 54 55 54 54 54 53 52 51 50 48 46 44 42 40 38 36 35 34 33 32 31 30 28 27 27 26 26 27 27 27 27 27 27 27 27 27 27 27 27 28 28 28 28 28 28 28 29 30 31 32 33 33 32 32 31 30 29 28 27 25 24 22 21 20 20
52 51 51 51 50 49 46 41 37 34 32 33 36 39 43 47 49 52 54 55 56 55 55 54 53 52 50 49 48 46 44 42 40 38 37 35 34 33 32 31 30 29 29 28 28 27 27 28 28 28 28 28 29 29 29 29 29 29 29 29 29 29 29 29 29 30 30 32 33 34 35 35 35 35 34 33 32 31 29 27 26 24 23 22 22 23
53 53 52 51 48 44 40 36 33 33 35 39 43 46 50 52 53 55 56 56 55 54 53 53 52 50 47 45 44 42 41 39 37 36 35 34 33 32 31 31 30 30 29 29 29 29 29 29 30 30 30 30 30 30 30 30 30 30 30 30 30 31 31 31 31 32 34 35 37 38 38 38 38 37 36 35 33 31 30 28 26 25 24 25 25 26
54 52 50 47 42 38 35 34 35 37 41 45 49 51 53 54 55 56 56 56 55 54 53 52 50 48 45 43 41 39 38 37 36 35 34 34 33 32 32 31 31 31 31 31 31 31 31 31 32 32 32 32 32 32 32 32 32 32 32 32 32 32 32 33 34 36 38 39 40 41 41 41 40 39 37 35 34 32 30 28 27 27 27 27 28 28
51 48 44 40 37 35 35 37 40 43 48 50 52 54 55 55 55 55 55 55 54 53 52 50 48 46 43 41 39 38 37 37 36 35 35 35 34 34 33 33 33 33 33 33 33 33 33 33 34 34 34 34 34 34 34 34 34 34 34 34 34 35 35 37 38 40 42 43 44 44 44 43 42 40 38 36 34 33 31 30 30 30 30 30 30 30
45 42 38 36 36 37 39 42 46 49 52 53 54 55 55 54 54 54 54 54 53 52 50 47 45 43 42 41 40 39 38 38 37 37 36 36 36 35 35 36 36 36 36 35 35 35 35 35 35 36 36 36 36 36 36 36 36 36 36 37 37 38 40 41 43 44 46 47 48 47 47 45 43 41 39 37 36 34 33 33 33 33 33 33 32 32
40 38 37 37 39 42 45 48 50 52 54 54 54 54 53 53 53 53 53 52 51 49 48 46 45 43 43 42 42 41 40 40 39 39 38 38 38 38 38 38 38 38 38 38 38 37 37 37 38 38 38 38 39 39 39 39 39 39 40 41 42 43 44 46 47 49 50 51 51 51 49 47 45 43 41 39 38 37 36 36 36 35 35 35 34 33
38 38 39 41 44 47 49 51 53 54 54 54 54 53 53 53 52 52 52 51 50 49 47 46 46 45 45 44 44 43 42 42 41 41 41 41 41 41 41 41 41 41 40 40 40 40 40 40 40 40 41 41 42 42 42 43 43 44 44 45 46 48 49 50 52 53 54 54 54 53 52 50 47 45 43 42 41 40 39 39 38 37 37 36 35 35
40 42 44 46 49 50 52 52 52 53 53 53 53 53 53 53 52 52 51 51 50 50 49 48 48 47 47 46 46 45 44 44 44 44 44 44 44 43 43 43 43 43 42 42 42 42 42 43 43 44 44 45 45 46 47 47 48 49 50 51 52 53 54 55 56 57 58 58 57 55 53 51 50 48 46 45 43 42 41 40 40 39 38 37 37 36
44 46 48 50 51 52 52 51 51 51 51 52 52 52 52 52 51 51 51 51 51 51 51 50 50 50 49 48 47 47 47 47 47 47 47 47 47 46 46 45 45 45 45 45 45 45 46 47 47 48 49 50 51 51 52 53 54 54 55 56 57 58 58 59 60 60 60 59 58 56 54 52 51 49 47 46 44 43 42 42 41 40 39 38 38 37
48 49 50 50 51 51 50 50 50 50 50 50 51 51 51 51 51 51 52 52 53 53 53 52 52 51 50 50 50 49 49 49 50 50 50 50 50 49 48 48 48 48 49 49 49 50 51 51 52 53 54 55 56 57 57 58 58 59 59 60 60 61 61 62 62 61 60 59 58 56 54 52 50 49 47 46 45 44 43 42 41 41 40 40 39 38
48 49 50 49 49 49 48 48 48 48 48 48 49 50 50 51 52 53 53 54 54 55 55 54 53 53 52 52 52 52 52 52 52 53 53 53 53 52 51 51 52 52 53 53 54 55 56 57 58 59 60 60 60 60 60 60 60 61 61 61 62 62 63 63 62 61 60 58 56 54 52 51 49 48 47 46 45 44 44 43 43 42 42 41 40 38
47 48 48 47 47 47 46 46 46 46 46 46 47 48 49 50 51 53 54 55 55 56 56 55 55 55 55 54 54 55 55 55 56 56 56 56 56 56 56 56 57 57 58 58 59 60 61 62 63 63 64 63 63 62 62 61 61 61 61 62 62 63 63 62 61 59 58 56 54 52 51 49 48 48 47 46 46 46 45 45 44 43 42 40 38 35
45 45 45 45 44 44 43 43 43 43 44 45 46 47 48 50 51 53 54 55 56 57 57 58 58 58 58 58 58 59 58 59 59 60 60 61 61 60 60 60 61 62 63 63 64 65 66 66 67 66 66 66 65 63 62 61 61 61 61 61 62 62 61 60 59 57 55 54 52 51 50 49 49 48 48 48 48 47 47 46 44 42 39 36 32 29
43 43 42 42 41 41 41 41 41 42 43 44 46 47 49 50 52 54 55 56 57 58 59 59 60 60 61 62 63 63 63 63 63 64 65 65 65 65 64 64 65 66 67 67 68 68 70 70 69 68 68 67 65 64 62 61 61 60 60 61 60 60 59 57 56 54 53 52 51 51 51 50 50 50 50 50 49 48 47 44 41 37 33 28 24 20
40 39 39 39 39 39 39 40 41 42 43 44 46 47 49 51 53 55 56 56 57 58 60 60 61 62 63 64 66 66 67 67 67 68 68 69 69 69 68 67 68 68 69 70 70 70 71 71 70 69 68 66 65 63 62 61 60 60 60 60 59 58 56 55 53 53 52 52 52 52 52 52 52 52 51 50 48 46 42 38 33 28 23 19 16 13
38 37 37 38 38 39 40 41 42 43 44 45 47 48 49 51 53 54 54 54 56 58 60 61 62 64 66 67 68 69 69 70 70 70 71 72 72 72 71 70 70 70 70 70 70 70 70 70 69 67 66 65 63 62 61 60 60 60 59 58 57 56 54 53 52 52 52 52 52 52 53 53 53 52 51 47 43 38 33 28 23 18 15 12 10 9
37 37 37 38 39 40 41 43 44 45 46 47 48 48 49 50 52 52 53 53 55 57 59 60 62 64 66 67 68 69 71 71 71 71 72 74 74 73 72 71 71 71 70 70 69 69 68 67 66 65 64 63 62 61 60 60 59 59 58 57 55 54 53 52 52 52 52 52 53 53 53 53 51 49 45 39 34 28 22 18 14 11 10 9 8 8
36 37 38 39 40 42 43 44 45 46 47 48 48 48 48 49 50 51 51 52 53 55 57 59 60 62 64 66 68 69 70 70 69 70 72 74 75 73 72 72 71 70 69 70 70 69 67 65 63 62 62 61 60 60 59 58 58 57 56 54 54 53 52 52 52 52 52 53 53 53 52 49 45 40 34 28 22 18 13 11 10 9 8 8 8 8
36 37 39 40 42 43 44 46 46 47 47 47 47 47 47 47 48 48 49 50 51 53 55 57 59 61 63 65 68 69 70 69 69 69 72 74 74 73 72 72 71 70 69 70 71 71 69 65 62 60 60 59 59 58 57 56 55 54 53 52 52 52 52 52 53 53 54 53 52 50 47 41 35 29 23 18 14 11 10 9 9 9 9 9 9 9
38 39 41 42 43 44 45 46 46 47 46 46 46 45 45 45 46 46 47 49 50 52 54 56 58 60 61 64 67 69 70 69 69 69 71 73 73 72 71 71 71 70 70 70 71 71 70 67 64 60 58 58 57 55 54 53 52 51 51 51 51 52 52 53 54 54 54 51 48 43 37 30 24 18 14 11 10 9 9 9 9 9 9 10 10 10
40 42 43 44 45 46 46 46 46 45 45 45 44 44 44 44 45 45 46 47 49 51 53 55 57 59 61 63 65 67 68 68 68 68 70 72 72 71 70 71 71 70 69 69 68 68 68 66 63 60 57 55 53 52 51 50 50 50 50 51 52 53 53 54 54 53 50 44 38 32 25 19 15 12 10 9 9 9 9 10 10 10 10 10 10 10
43 44 45 45 46 46 46 45 45 44 44 43 43 43 43 44 44 45 46 47 49 51 52 54 57 59 60 62 64 65 66 66 66 67 68 70 70 70 69 69 69 68 67 66 65 64 62 61 59 56 54 51 49 49 48 49 49 50 51 52 53 54 53 52 50 46 40 34 27 20 16 12 10 10 9 9 10 10 10 10 10 10 10 10 10 10
44 45 46 46 46 46 45 45 44 43 43 43 43 43 43 44 45 46 47 48 49 51 52 54 56 58 60 61 63 64 65 65 65 65 67 68 68 68 67 66 65 64 63 62 60 59 58 56 54 53 52 50 48 47 48 49 50 51 51 52 52 52 50 46 42 35 29 23 18 14 11 10 10 10 10 10 10 10 10 10 10 10 10 10 10 10
46 46 46 46 46 45 45 44 44 43 43 43 43 43 44 45 45 46 47 48 49 51 52 53 55 56 58 60 62 63 64 64 64 65 65 65 65 64 63 61 60 59 58 57 56 56 55 54 53 52 52 51 50 49 49 49 50 51 51 51 49 47 43 37 31 25 20 16 13 11 10 10 10 10 10 10 11 11 10 10 10 10 10 10 10 10
47 47 47 46 45 45 45 44 44 43 43 43 43 44 44 45 46 47 47 48 49 50 51 52 53 55 56 58 60 61 62 63 63 63 63 62 61 60 59 57 56 56 55 55 55 55 55 55 54 53 53 52 52 51 50 50 50 49 48 46 43 39 34 28 23 18 14 12 11 10 10 10 10 11 11 11 11 11 11 11 10 10 10 10 10 9
48 47 47 46 45 45 45 45 44 44 44 44 45 45 46 46 47 47 48 48 49 50 51 51 52 54 55 56 57 59 60 60 60 60 60 59 58 57 57 56 56 56 56 56 56 56 56 56 55 54 53 53 52 51 50 49 48 46 43 40 35 31 26 21 17 14 12 11 10 10 10 11 11 11 11 11 11 11 11 11 10 10 10 10 9 9
48 47 47 47 46 46 46 46 46 46 46 46 46 46 47 48 48 48 48 49 49 49 50 51 52 52 53 54 55 56 57 58 58 58 58 58 58 58 58 58 58 57 56 56 55 55 55 54 54 54 53 53 52 50 49 47 44 41 37 33 28 24 20 17 14 12 11 11 10 11 11 11 12 12 12 12 12 11 11 11 11 10 10 9 9 8
49 48 48 48 47 47 48 48 48 48 48 48 48 48 48 49 49 50 50 50 50 50 50 50 51 51 52 52 53 54 55 56 57 58 58 58 58 59 59 58 58 57 56 55 54 53 52 52 52 52 52 52 51 49 46 43 39 35 30 26 23 20 17 15 13 12 11 11 11 11 12 12 12 12 12 12 12 12 11 11 11 10 10 9 8 8
50 50 50 49 49 49 49 49 49 49 49 49 49 49 50 50 51 51 52 51 51 51 50 50 50 51 51 52 53 54 55 56 57 57 58 58 58 58 57 57 56 55 54 53 52 52 51 51 52 52 51 50 48 45 42 38 34 29 25 22 19 18 16 14 12 11 11 11 12 12 12 13 13 13 13 13 12 12 12 11 10 10 9 8 8 7
52 51 51 51 51 50 50 50 50 50 50 50 50 51 51 52 53 54 54 54 53 52 51 51 51 51 52 53 54 55 55 56 56 56 56 56 57 57 57 56 56 55 55 54 53 53 52 52 52 51 50 47 44 41 37 33 29 25 22 20 18 16 15 13 12 12 12 12 12 13 13 13 13 13 13 13 13 12 12 11 10 9 9 8 7 7
53 52 52 51 51 51 51 51 51 51 51 51 51 52 53 54 55 56 56 56 55 54 52 52 52 52 53 55 55 56 56 55 55 55 55 56 56 57 57 58 57 57 56 56 55 54 53 52 51 49 46 43 40 37 33 30 27 24 22 20 18 16 14 13 13 12 12 13 13 13 13 13 13 13 13 13 13 12 12 11 10 9 8 8 7 8
53 53 52 52 51 51 51 51 51 51 51 52 53 53 54 55 57 58 58 58 57 55 54 53 53 53 54 55 56 56 56 55 55 55 55 56 57 58 59 59 59 58 57 56 56 55 53 52 49 47 43 41 38 35 32 29 26 24 22 20 18 16 14 13 13 13 13 13 13 14 14 14 14 14 14 13 13 12 11 10 9 9 8 7 7 8
53 53 52 51 51 51 51 51 52 52 52 53 54 55 56 57 59 60 60 60 58 57 55 54 53 54 55 55 55 56 56 56 55 55 55 56 57 58 59 58 58 57 56 55 54 54 53 52 50 47 43 40 38 35 32 29 27 25 22 20 18 16 14 14 13 13 14 14 14 14 14 14 14 14 14 13 13 12 11 10 9 8 8 7 8 9
52 52 52 51 51 51 52 52 52 53 53 54 55 56 58 59 60 61 62 61 60 58 57 55 55 55 56 56 55 56 56 56 55 55 55 55 55 56 56 55 55 54 54 53 53 53 53 52 51 48 45 42 39 36 33 30 28 26 23 20 18 16 15 14 14 14 14 14 15 15 15 15 15 14 14 13 12 11 10 10 9 8 7 8 8 10
52 52 52 52 52 52 53 53 53 54 55 55 56 58 59 61 62 63 63 62 61 60 58 57 56 56 57 56 56 56 56 56 55 54 54 53 52 52 51 51 51 51 51 52 52 53 53 52 51 49 46 43 40 37 35 32 30 27 24 21 18 16 15 14 14 14 14 15 15 15 15 15 15 15 14 13 12 11 10 9 8 8 7 8 9 12
53 52 53 53 53 54 54 54 55 55 56 56 58 59 61 62 64 65 65 64 63 62 60 59 58 57 57 57 56 56 56 55 54 53 52 51 50 49 48 48 48 48 49 50 52 53 53 52 51 49 46 44 41 39 37 35 31 28 24 21 18 16 15 15 15 15 15 15 16 16 16 16 15 15 14 13 12 10 9 9 8 8 7 8 10 14
54 54 54 55 55 56 56 56 56 57 57 57 59 60 61 63 65 66 67 66 65 64 62 60 59 59 59 58 57 56 56 55 54 53 51 50 49 48 47 47 46 47 48 50 51 53 54 53 52 50 47 45 43 41 39 36 33 29 25 21 18 17 16 16 16 16 16 16 16 16 16 16 16 15 14 13 11 10 9 8 8 8 8 9 12 17
55 55 56 56 57 57 57 57 58 58 58 59 59 60 62 64 65 67 68 68 67 66 64 62 61 61 60 59 58 57 57 56 54 53 51 50 50 49 49 48 47 47 47 49 52 55 57 56 54 52 50 47 45 43 40 37 34 30 25 21 19 17 16 17 17 17 17 17 17 17 17 17 16 15 14 13 11 10 8 8 8 8 9 11 14 19
57 57 57 57 58 58 58 58 59 59 59 60 60 61 62 64 66 67 68 69 69 68 67 65 64 63 63 62 60 59 58 57 56 55 53 52 52 52 52 51 49 48 48 50 53 56 59 59 57 55 52 50 47 45 41 38 34 30 25 21 19 18 17 17 18 18 17 17 17 17 17 17 16 15 14 12 11 9 8 8 8 8 10 13 17 22
Wind_Speed
38 37 37 37 37 36 36 35 35 34 34 33 33 32 32 31 30 30 29 28 28 27 27 26 26 26 26 26 27 27 27 28 28 28 28 28 28 28 29 29 29 29 29 29 29 29 29 29 29 29 29 29 29 29 28 28 28 28 27 27 27 26 26 25 25 25 25 25 25 25 25 25 25 25 25 24 24 23 23 23 23 23 23 23 23 23
37 37 37 36 36 36 35 35 34 33 33 33 32 32 31 30 29 28 28 27 27 27 26 26 26 26 26 27 27 27 27 28 28 28 28 28 29 29 29 29 29 30 30 29 29 29 29 29 29 29 29 29 29 29 29 29 28 28 28 27 27 27 26 26 26 26 26 26 26 26 26 26 25 25 25 25 24 24 24 24 24 24 24 24 24 24
36 36 36 36 35 35 34 34 33 33 32 32 31 30 29 29 28 27 26 26 26 26 26 26 26 26 26 27 27 27 27 28 28 28 28 29 29 30 30 30 30 30 30 29 29 29 29 29 29 29 29 29 29 29 29 29 29 28 28 28 28 27 27 27 27 27 26 26 26 26 26 26 26 26 25 25 25 25 25 25 25 25 25 25 25 25
36 36 35 35 34 34 33 33 33 32 31 31 30 29 28 27 26 26 26 26 26 26 26 26 26 26 26 27 27 27 27 28 28 29 29 30 30 30 30 30 30 30 30 29 29 29 29 29 29 29 29 29 29 29 29 29 29 29 28 28 28 28 28 28 27 27 27 27 27 27 27 27 27 26 26 26 26 26 26 26 26 26 26 26 26 27
35 35 34 34 33 33 33 32 32 31 30 29 28 27 27 26 25 25 25 25 25 26 26 26 26 26 26 27 27 27 28 29 29 30 30 31 31 31 31 31 30 30 30 29 29 29 29 29 29 29 29 29 29 29 29 29 29 29 29 29 28 28 28 28 28 28 28 28 28 28 27 27 27 27 27 27 27 27 27 27 27 27 27 27 27 28
34 34 33 33 32 32 32 31 30 29 29 28 27 26 26 25 25 25 25 25 25 25 26 26 26 26 27 27 27 28 29 29 30 31 31 31 31 31 31 30 30 30 29 29 29 29 29 30 30 30 29 29 29 29 29 29 29 29 29 29 29 29 29 29 29 29 29 28 28 28 28 28 28 28 28 28 28 28 28 28 28 28 28 28 28 29
33 33 32 32 32 31 30 29 29 28 27 26 26 25 25 24 24 24 24 25 25 25 26 26 26 27 27 28 28 29 30 30 31 31 31 31 31 31 31 30 30 30 29 29 29 30 30 30 30 30 30 29 29 29 29 29 29 29 29 29 29 29 29 29 29 29 29 29 29 29 29 29 29 29 29 29 29 29 29 29 29 29 29 29 29 29
32 32 31 31 30 30 29 28 27 27 26 25 25 25 24 24 24 24 24 25 25 25 26 26 27 27 28 29 29 30 31 31 31 31 31 31 31 31 30 30 30 30 30 30 30 30 30 30 30 30 30 30 30 30 30 30 30 30 30 30 30 30 30 30 30 30 30 30 30 30 30 30 30 30 30 30 29 29 29 30 30 30 30 30 30 30
31 31 30 29 29 28 27 27 26 25 25 25 24 24 24 24 24 24 25 25 25 26 26 27 27 28 29 30 31 31 31 31 31 31 31 31 31 31 30 30 30 30 30 30 30 30 30 30 30 30 30 30 30 30 30 30 30 30 30 30 30 30 30 30 30 30 30 30 30 30 30 30 30 30 30 30 30 30 30 30 30 30 30 30 31 31
30 30 29 28 27 27 26 25 25 25 24 24 24 24 24 24 24 25 25 25 26 26 27 27 28 29 30 31 31 31 31 31 31 31 31 31 31 30 30 30 30 30 30 30 31 31 30 30 30 30 30 30 30 30 30 30 30 31 31 31 31 31 31 31 31 31 31 31 31 31 31 31 31 31 31 31 31 31 31 31 31 31 31 31 31 31
29 28 27 27 26 26 25 25 24 24 24 23 23 23 24 24 25 25 26 26 27 27 28 28 29 30 31 31 31 31 31 31 31 31 30 30 31 31 31 30 30 30 31 31 31 31 31 31 30 30 30 30 30 30 30 30 31 31 31 31 31 31 31 31 31 31 31 31 31 31 32 32 32 32 32 32 32 32 32 31 31 31 31 32 32 32
27 27 26 26 25 25 24 24 24 23 23 23 23 24 24 25 25 26 27 28 28 28 29 29 29 30 30 31 31 31 31 31 30 30 30 30 31 31 31 31 31 31 31 31 31 31 31 31 31 30 30 30 30 30 31 31 31 31 31 31 31 31 31 31 31 31 32 32 32 32 32 33 33 33 33 32 32 32 32 32 32 32 32 32 32 33
26 26 25 25 25 24 23 23 23 23 23 23 24 24 25 26 26 27 28 29 29 29 30 30 30 30 30 30 31 31 31 30 30 30 30 30 31 31 31 31 31 31 31 31 31 31 31 31 31 30 30 30 30 30 31 31 31 31 31 31 31 31 31 31 32 32 32 32 33 33 33 33 33 33 33 33 32 32 32 32 32 32 33 33 33 34
25 25 25 24 24 23 23 23 23 23 23 24 24 25 26 27 27 28 29 29 30 30 30 30 30 30 30 30 30 30 30 30 30 30 30 31 31 31 31 31 31 31 31 31 31 31 31 31 30 30 30 30 30 30 31 31 31 31 31 31 31 31 32 32 32 32 32 33 33 34 34 34 34 33 33 33 33 33 33 33 33 33 34 34 35 35
24 24 24 23 23 23 23 23 23 23 24 25 26 26 27 28 28 29 29 30 30 30 30 30 30 30 30 30 31 31 31 31 30 30 30 31 31 31 31 31 31 31 31 31 31 31 31 31 30 30 30 30 30 30 31 31 31 31 31 31 31 32 32 32 32 33 33 34 34 34 34 34 34 34 34 33 33 33 33 34 34 34 35 35 36 37
24 23 23 23 23 23 23 23 24 24 25 26 27 28 28 29 29 29 29 30 30 30 30 30 30 30 30 31 31 31 31 31 31 30 31 31 31 31 31 31 31 31 31 31 31 31 31 30 30 30 30 30 30 30 31 31 31 31 31 31 32 32 32 33 33 34 34 34 35 35 35 35 34 34 34 34 34 34 34 35 35 36 36 37 37 38
23 23 23 23 23 23 23 24 25 25 26 27 28 28 29 29 29 29 29 29 29 29 29 29 30 30 30 31 31 31 31 31 31 31 31 31 31 31 31 31 31 31 31 31 31 31 31 30 30 30 30 30 30 30 31 31 31 31 32 32 32 33 33 34 34 35 35 35 36 36 35 35 35 35 35 35 35 35 36 36 36 37 38 38 39 40
23 22 22 23 23 24 24 25 26 27 27 28 28 29 29 29 29 29 29 29 29 29 29 29 30 30 30 31 31 31 31 31 31 31 31 31 31 31 31 31 31 31 31 31 31 31 31 31 30 30 30 30 31 31 31 31 32 32 32 33 33 34 34 35 35 36 36 36 36 36 36 36 36 36 36 36 36 36 37 37 38 38 39 40 40 41
22 22 23 23 24 25 25 26 27 27 28 28 29 29 29 29 29 29 29 29 29 29 29 29 30 30 30 30 31 31 31 31 31 31 31 31 31 31 31 31 31 31 31 31 31 31 31 31 31 31 31 31 31 31 32 32 32 33 33 34 34 35 35 36 36 36 37 37 37 37 37 36 36 36 37 37 37 37 38 38 39 40 41 41 42 43
22 23 23 24 25 26 26 27 27 28 28 28 28 28 28 28 28 28 29 29 29 29 30 30 30 30 30 30 31 31 31 31 31 31 31 31 31 31 31 31 31 31 32 32 32 32 32 32 32 31 31 32 32 32 32 33 33 34 34 35 35 36 36 37 37 37 37 37 37 37 37 37 37 37 37 38 38 38 39 40 40 41 42 43 44 45
23 23 24 25 26 26 27 27 27 27 28 28 28 28 28 28 28 28 29 29 29 30 30 30 30 30 30 30 31 31 31 31 31 31 31 31 32 32 32 32 32 32 32 32 32 32 32 32 32 32 32 32 33 33 33 34 34 35 35 36 36 36 37 37 37 37 37 37 37 37 37 37 37 38 38 38 39 40 40 41 42 43 44 45 46 46
24 24 25 26 26 27 27 27 27 27 27 27 27 28 28 28 28 29 29 29 30 30 30 30 30 30 30 31 31 31 31 31 32 32 32 32 32 32 32 32 32 32 32 32 33 33 33 33 33 33 33 33 33 34 34 34 35 35 35 36 36 37 37 37 37 37 37 37 37 37 37 37 38 38 39 39 40 41 42 43 44 45 46 46 46 46
24 25 25 26 26 26 26 26 26 26 27 27 27 28 28 28 29 29 29 30 30 30 30 30 31 31 31 31 31 32 32 32 32 32 32 32 32 33 33 32 32 32 33 33 33 33 34 34 34 34 34 34 34 34 34 35 35 35 36 36 36 36 36 36 36 37 37 37 37 37 38 38 38 39 40 41 42 43 44 45 46 46 47 47 46 46
25 25 25 25 25 26 26 26 26 26 26 27 27 28 28 29 29 29 30 30 30 31 31 31 31 31 32 32 32 32 32 33 33 33 33 33 33 33 33 33 33 33 33 33 34 34 34 35 35 35 35 34 34 34 35 35 35 35 36 36 36 36 36 36 36 36 37 37 38 38 38 39 40 40 41 43 44 45 46 46 47 47 46 46 46 45
24 24 25 25 25 25 25 25 26 26 27 27 28 28 29 29 29 30 30 31 31 31 31 32 32 32 32 33 33 33 33 33 33 33 33 33 33 33 33 33 33 33 34 34 34 35 35 35 35 35 35 35 35 35 35 35 35 36 36 36 36 36 36 36 36 37 37 38 38 39 40 40 41 42 43 44 45 46 46 46 46 46 46 45 45 45
24 24 24 24 24 24 25 25 26 26 27 28 28 28 29 29 30 30 31 31 31 32 32 32 32 33 33 33 33 34 34 34 34 34 34 34 34 34 34 34 34 34 34 34 35 35 35 36 36 36 35 35 35 35 35 36 36 36 36 36 36 36 36 37 37 38 38 39 40 40 41 42 43 44 45 45 46 46 46 46 45 45 45 45 45 45
23 23 23 23 24 24 25 26 26 27 27 28 28 29 29 30 30 31 31 32 32 32 33 33 33 34 34 34 34 34 34 34 35 35 35 34 34 34 34 34 34 34 34 35 35 35 35 36 36 36 35 35 35 35 36 36 36 36 36 36 36 37 37 38 38 39 39 40 41 42 42 43 44 45 45 46 46 45 45 45 44 44 44 45 45 45
22 23 23 23 24 25 25 26 26 27 28 28 29 29 30 30 31 31 32 32 33 33 33 34 34 34 34 35 35 35 35 35 35 35 35 35 35 34 35 35 35 35 35 35 35 35 36 36 36 36 35 35 35 35 36 36 36 36 36 36 37 37 38 39 39 40 41 41 42 43 44 44 45 45 45 45 45 44 44 44 44 44 44 45 46 47
22 23 23 24 24 25 26 26 27 28 28 29 29 30 30 31 31 32 32 33 33 34 34 34 35 35 35 35 35 35 35 36 36 36 36 35 35 35 35 35 35 35 35 35 35 35 36 36 36 35 35 35 35 35 36 36 36 36 37 37 38 38 39 40 40 41 42 42 43 44 44 45 45 44 44 44 43 43 43 43 44 44 45 46 47 48
23 23 23 24 25 25 26 27 27 28 29 29 30 31 31 32 32 33 33 33 34 34 34 35 35 35 35 35 35 36 36 36 36 36 36 36 35 35 36 36 36 36 36 35 35 35 35 35 35 35 35 35 35 35 36 36 36 37 37 38 39 40 40 41 42 42 43 43 44 44 44 44 43 43 43 42 42 43 43 44 45 46 47 48 49 50
23 23 24 25 25 26 26 27 28 29 29 30 31 31 32 32 32 33 33 34 34 34 35 35 35 35 35 35 35 36 36 36 36 36 36 36 36 36 36 36 36 36 36 35 35 35 35 35 35 35 35 35 35 35 36 37 37 38 39 39 40 41 41 42 42 43 43 43 43 43 43 42 42 42 42 42 42 43 44 45 46 47 48 49 50 51
24 24 25 25 26 27 27 28 28 29 30 30 31 32 32 32 33 33 33 34 34 34 34 34 35 35 35 35 35 35 35 35 36 36 36 35 35 35 35 35 35 35 35 35 35 35 35 35 35 35 35 35 36 36 37 38 38 39 40 40 41 41 42 42 42 43 43 42 42 42 41 41 41 41 42 42 43 44 45 46 47 48 49 50 52 53
24 25 26 26 27 27 28 29 29 30 30 31 31 32 32 33 33 33 33 34 34 34 34 34 34 34 34 34 34 34 34 34 34 34 34 34 34 34 34 34 34 34 34 34 34 34 35 35 36 36 36 36 37 38 38 39 40 40 41 41 41 42 42 42 42 42 41 41 40 40 40 40 41 41 42 43 44 45 46 47 48 49 51 52 53 54
25 26 26 27 28 28 29 29 30 30 31 31 32 32 33 33 33 33 33 33 33 33 33 33 33 33 33 33 32 32 33 33 33 33 33 33 33 33 33 33 33 33 33 34 34 34 35 36 36 37 38 38 38 39 39 40 40 40 41 41 41 41 41 41 40 40 40 39 39 39 40 40 41 42 43 44 45 46 47 49 50 51 52 53 54 55
26 26 27 28 28 29 29 30 30 31 31 32 32 32 33 33 33 33 33 33 33 33 33 32 32 32 32 31 31 31 31 32 32 32 32 32 32 32 32 32 32 33 33 34 35 35 36 37 37 38 39 39 39 39 39 40 40 40 40 40 40 40 40 39 39 39 39 39 39 39 40 41 42 43 44 45 46 48 49 50 51 53 54 55 55 56
27 27 28 29 29 30 30 30 31 31 32 32 32 33 33 33 33 33 33 33 33 33 32 32 31 31 31 30 30 30 30 31 31 31 31 31 31 32 32 32 33 34 34 35 36 36 37 38 38 39 39 39 40 40 39 39 40 40 40 39 39 39 38 38 38 38 38 39 39 40 40 41 42 44 45 46 48 49 50 52 53 54 55 56 56 57
27 28 29 29 30 30 31 31 31 32 32 32 33 33 33 33 33 33 33 33 33 32 32 31 31 31 30 30 30 30 30 30 31 31 31 32 32 33 33 33 34 35 35 36 36 37 37 38 38 39 39 39 39 40 39 39 39 39 39 38 38 38 38 38 38 38 39 39 40 40 41 42 43 45 46 47 49 50 52 53 54 55 56 57 57 57
28 29 29 30 30 31 31 31 32 32 33 33 33 33 33 33 34 34 33 33 33 32 32 31 31 31 30 30 30 30 31 31 31 32 32 33 33 33 34 34 35 35 35 36 36 37 37 38 38 39 39 39 39 40 39 39 39 38 38 37 37 37 37 37 38 38 39 39 40 41 42 43 44 46 47 49 50 52 53 54 55 56 57 57 57 57
29 29 30 30 31 31 32 32 32 33 33 33 33 34 34 34 34 34 33 33 33 32 32 31 31 31 31 31 31 31 31 31 32 32 33 33 33 34 34 34 35 35 36 36 36 37 37 38 38 39 39 39 39 39 39 38 38 38 37 37 37 37 37 38 38 39 39 40 41 42 43 44 46 47 49 50 52 53 54 55 56 57 57 57 57 57
29 30 30 31 31 32 32 32 33 33 33 34 34 34 34 34 34 34 33 33 32 32 32 31 31 31 31 31 31 31 31 31 32 32 32 33 33 34 34 35 35 36 36 37 37 37 38 38 39 39 39 39 39 38 38 37 37 37 37 37 37 38 38 38 38 39 39 40 41 42 44 45 47 48 50 51 53 54 55 56 57 57 57 57 57 57
30 30 31 31 32 32 33 33 33 34 34 34 34 34 34 34 34 34 33 33 32 32 32 32 32 31 31 31 31 31 31 32 32 32 33 33 34 34 35 35 36 37 37 37 38 38 38 38 38 38 38 38 38 38 37 37 37 37 37 38 38 39 39 39 39 39 40 41 42 43 45 46 48 49 51 52 54 55 56 57 57 57 57 57 56 56
30 31 31 32 32 33 33 34 34 34 34 34 34 34 34 34 34 34 33 33 33 32 32 32 32 32 32 31 31 31 32 32 33 33 34 34 35 35 36 36 37 37 37 37 38 37 37 37 37 37 37 37 37 37 37 36 37 37 38 39 39 40 40 39 40 40 41 42 43 44 46 47 49 51 52 53 55 56 57 57 57 57 57 57 56 55
31 31 32 32 33 33 34 34 34 34 35 35 35 35 35 34 34 34 33 33 33 33 33 33 33 32 32 32 32 32 33 33 34 34 35 35 35 36 36 36 36 37 37 37 37 37 36 36 36 36 36 36 36 36 37 37 37 38 39 39 40 40 40 40 41 41 42 43 44 45 47 48 50 52 53 54 56 57 57 57 57 57 57 56 55 54
32 32 33 33 34 34 34 34 35 35 35 35 35 35 35 35 34 34 34 34 34 34 34 34 33 33 33 33 33 33 34 34 34 35 35 35 35 35 36 36 36 36 36 36 36 36 36 36 36 36 36 36 36 37 37 38 38 39 39 40 40 41 41 41 41 42 43 44 45 46 48 49 51 53 54 55 56 57 58 58 57 57 56 55 54 52
33 33 34 34 34 35 35 35 35 35 35 35 35 35 35 35 35 35 35 34 35 35 35 35 34 34 34 34 34 34 34 35 35 35 35 35 35 35 35 36 36 36 36 36 36 36 36 36 36 36 36 37 37 37 38 39 39 40 40 41 41 41 41 42 42 43 44 45 46 47 49 50 52 53 55 56 57 57 58 58 57 56 55 54 53 51
33 34 34 35 35 35 36 36 36 36 36 36 36 36 35 35 35 35 35 35 35 36 36 36 35 35 35 35 35 35 35 35 35 35 35 35 35 35 36 36 36 37 37 37 37 37 37 37 37 37 37 38 38 38 39 40 40 41 41 42 42 42 42 42 43 43 44 46 47 48 50 51 52 54 55 56 57 58 58 57 57 56 55 53 52 50
34 35 35 36 36 36 36 36 36 36 36 36 36 36 36 36 36 36 36 36 36 36 37 37 36 36 36 36 36 36 36 35 35 35 35 35 35 36 36 37 37 37 37 37 37 38 38 38 38 38 38 39 39 39 40 40 41 42 42 42 42 42 43 43 43 44 45 46 47 49 50 51 53 54 55 56 57 58 57 57 56 55 54 52 50 48
36 36 36 36 37 37 37 37 37 37 37 37 37 37 37 37 37 37 37 37 37 37 37 37 37 37 37 37 37 37 37 36 36 36 36 36 36 36 37 37 38 38 38 38 38 38 38 39 39 39 39 39 40 40 41 41 42 42 43 43 43 43 43 44 44 45 46 47 48 49 51 52 53 54 55 56 57 57 57 56 56 55 53 51 49 47
37 37 37 37 37 37 37 37 37 38 38 38 37 37 37 37 37 37 37 37 38 38 38 38 38 38 38 38 38 38 38 37 37 37 37 37 37 37 38 38 38 38 38 39 39 39 39 40 40 40 40 41 41 42 42 43 43 43 43 43 43 43 44 44 45 45 46 47 49 50 51 52 53 55 56 56 56 56 56 56 55 54 52 50 48 46
38 38 38 38 38 38 38 38 38 38 38 38 38 38 38 38 38 38 38 38 38 38 38 38 39 39 39 39 39 39 39 39 39 38 38 38 38 38 39 39 39 39 39 39 40 40 40 41 41 41 41 41 42 42 43 43 44 44 44 44 44 44 44 45 45 46 47 48 49 50 52 53 54 55 56 56 56 56 55 54 54 53 51 49 48 46
39 39 39 39 38 38 38 38 38 38 38 38 38 38 38 38 38 38 38 38 39 39 39 39 39 39 39 39 40 40 40 40 40 40 40 40 40 40 40 40 40 40 41 41 41 41 41 41 42 42 42 42 42 43 44 44 44 44 44 44 44 44 44 45 46 46 47 49 50 51 52 53 54 55 55 56 55 55 54 53 52 51 50 48 47 46
Wind_Direction
289 289 290 290 291 291 292 293 293 294 294 295 295 295 295 294 294 294 294 294 294 294 294 294 293 293 293 293 294 294 294 294 294 294 295 295 295 295 296 295 295 295 294 294 293 293 292 292 292 292 292 291 291 290 290 289 288 288 288 288 289 290 291 292 293 294 296 297 298 299 299 299 299 299 298 298 298 298 298 299 300 301 303 304 305 306
288 289 289 290 291 291 292 292 293 293 293 294 294 294 293 293 293 294 294 294 293 293 293 293 293 293 293 293 294 294 294 294 294 294 294 295 295 295 295 295 295 294 294 293 293 292 292 291 291 291 291 291 291 290 289 289 288 288 288 288 288 289 290 291 292 294 295 296 297 298 298 298 298 298 297 297 297 297 297 298 299 300 301 302 303 304
288 288 289 290 290 291 291 292 292 292 293 293 293 293 292 293 293 293 293 293 293 293 293 293 293 293 293 293 293 293 293 294 294 294 294 295 295 295 295 295 294 294 293 293 292 292 291 291 291 291 291 291 290 290 289 288 288 288 288 288 288 289 290 291 292 293 294 295 296 297 297 297 297 297 296 296 295 295 296 296 297 299 300 301 302 303
288 288 289 289 290 290 291 291 291 292 292 292 292 292 292 292 293 293 293 292 292 292 292 293 293 293 293 293 293 293 293 293 294 294 295 295 295 295 295 295 294 293 293 292 292 291 291 291 291 291 291 290 290 289 289 288 288 287 287 288 288 288 289 290 291 292 293 294 295 296 296 296 296 295 295 294 294 294 294 295 296 297 298 299 301 302
287 288 288 289 289 290 290 291 291 291 291 291 291 291 292 292 292 292 292 292 291 292 292 292 293 293 293 293 293 293 294 294 294 295 295 295 295 295 295 294 293 293 292 292 291 291 291 291 291 290 290 290 289 289 288 288 287 287 287 287 288 288 289 290 290 291 292 293 294 295 295 295 295 294 294 293 293 293 293 294 295 296 297 298 299 300
286 287 287 288 288 289 289 290 290 290 290 290 290 291 291 291 291 291 291 291 291 291 292 292 293 293 293 293 293 294 294 294 295 295 295 295 295 295 294 293 293 292 291 291 290 290 290 290 290 290 290 289 289 288 288 287 287 287 287 287 287 287 288 289 289 290 291 292 293 293 294 294 293 293 293 292 292 292 292 293 294 294 295 296 297 298
286 286 287 287 288 288 289 289 289 289 289 289 290 290 290 291 291 291 290 290 291 291 292 293 293 293 293 293 293 294 294 295 295 295 295 295 294 294 293 292 292 291 291 290 290 290 289 289 289 289 289 289 288 288 287 287 286 286 286 286 286 287 287 288 288 289 290 290 291 292 292 292 292 292 292 291 291 291 291 292 292 293 294 295 296 296
285 285 286 287 287 288 288 288 288 288 289 289 289 289 290 290 290 290 290 290 291 292 292 293 293 293 293 294 294 294 294 295 295 295 295 294 294 293 292 291 291 290 290 289 289 289 289 289 289 289 288 288 288 287 287 286 286 286 285 285 285 286 286 287 287 288 288 289 290 290 291 291 291 291 291 290 290 290 290 290 291 292 292 293 294 295
284 285 286 286 286 287 287 287 287 287 288 288 288 289 289 289 289 290 290 291 291 292 293 293 293 293 294 294 294 294 295 295 295 295 294 294 293 292 291 291 290 290 289 289 289 289 289 289 288 288 288 288 288 287 287 286 286 286 285 285 285 285 285 286 286 287 287 288 289 289 290 290 291 291 290 290 290 290 290 290 290 290 291 292 292 293
284 285 286 286 285 286 286 286 286 286 287 287 287 288 289 289 289 290 290 291 292 293 293 294 294 294 294 294 294 295 295 295 295 294 294 293 292 292 291 290 290 290 289 289 289 289 288 289 289 288 288 288 288 287 287 287 286 286 285 285 285 285 285 285 286 286 287 287 288 289 289 290 290 290 290 290 290 289 289 289 289 290 290 290 291 292
284 285 285 285 285 285 285 285 286 286 286 286 287 288 289 289 290 290 291 291 292 293 293 293 293 293 293 294 294 294 295 295 294 294 293 293 292 291 291 291 290 290 289 289 289 289 289 289 288 288 288 288 288 287 287 287 286 286 286 285 285 285 285 285 285 286 286 287 288 288 289 290 290 290 290 290 290 289 289 289 289 289 289 290 290 291
284 284 284 283 284 284 284 285 285 285 286 286 287 288 289 290 290 291 291 292 292 292 293 292 292 292 293 293 294 294 294 294 294 294 293 292 292 291 291 291 290 290 290 289 289 289 289 289 289 289 288 288 288 287 287 287 286 286 286 285 285 285 285 285 285 286 286 287 288 289 290 290 291 291 290 290 289 289 289 288 288 289 289 289 290 290
283 283 283 283 283 283 284 284 284 285 285 286 288 289 289 290 291 291 292 292 293 293 293 292 292 292 292 293 293 293 293 294 293 293 292 292 291 291 291 290 290 290 290 289 289 289 289 289 289 289 289 288 288 288 287 287 286 286 286 285 285 285 285 285 285 286 287 288 289 290 290 291 291 291 290 290 289 289 288 288 288 288 289 289 290 290
282 282 282 282 283 283 283 284 284 285 286 287 288 289 290 291 291 292 292 292 293 293 293 293 293 293 293 293 293 293 293 293 293 293 292 292 291 291 291 290 290 290 290 290 290 290 290 290 289 289 289 289 288 288 287 287 286 286 286 286 285 285 285 286 286 287 288 289 290 290 291 291 291 290 290 289 289 288 288 288 288 288 289 289 290 290
281 281 282 282 282 283 283 284 284 285 286 288 289 289 290 291 291 292 292 292 292 293 293 293 293 293 294 294 294 293 293 293 293 292 292 291 291 291 291 291 291 290 290 290 290 290 290 290 290 289 289 289 288 288 287 287 287 286 286 286 286 286 286 286 287 288 289 290 290 291 291 291 290 290 289 289 288 288 288 288 288 289 289 290 290 291
281 281 281 282 282 283 284 284 285 286 287 288 289 290 290 291 291 292 292 292 292 293 293 293 294 294 294 294 294 294 293 293 293 292 292 291 291 291 291 291 291 291 290 290 290 290 290 290 290 289 289 289 288 288 288 287 287 287 287 286 286 287 287 288 288 289 290 290 291 291 291 290 290 289 289 288 288 288 288 288 289 289 289 290 290 291
281 281 282 282 283 283 284 285 286 287 288 289 290 290 291 291 292 292 292 292 292 293 293 293 293 294 294 294 294 294 293 293 293 292 292 292 292 292 292 292 291 291 291 291 290 290 290 290 290 289 289 289 288 288 288 287 287 287 287 287 287 288 288 288 289 290 290 291 291 290 290 290 289 289 288 288 288 288 288 289 289 289 290 291 291 292
281 281 282 282 283 284 285 286 287 288 289 290 290 291 291 292 292 292 292 293 293 293 293 293 293 293 293 293 293 293 293 293 293 293 292 292 292 292 292 292 291 291 291 291 291 290 290 290 290 289 289 289 289 288 288 288 288 288 288 288 288 289 289 289 290 290 290 290 290 290 290 289 289 289 288 289 289 289 289 289 290 290 291 291 292 292
281 281 282 283 284 285 285 287 288 289 289 290 291 291 292 292 293 293 293 293 293 294 294 294 293 293 293 293 293 293 293 292 292 292 292 292 292 292 292 292 292 291 291 291 291 291 290 290 290 289 289 289 289 288 288 288 288 288 289 289 289 290 290 290 290 290 290 290 290 289 289 289 289 289 289 289 289 290 290 290 291 291 292 292 293 293
281 281 282 283 284 285 286 288 288 289 290 291 291 292 292 293 293 293 294 294 294 294 294 294 294 293 293 293 293 293 293 292 292 292 292 292 292 292 292 292 292 291 291 291 291 291 290 290 290 290 289 289 289 289 289 289 289 289 290 290 290 290 291 291 291 291 290 290 290 290 289 289 289 290 290 290 290 291 291 291 292 292 293 293 294 294
281 282 283 284 285 286 287 288 289 290 291 291 292 292 293 293 294 294 294 294 294 294 294 294 293 293 293 293 292 292 292 292 292 292 292 292 292 292 292 292 292 292 291 291 291 291 291 290 290 290 290 290 290 290 290 290 290 290 290 291 291 291 291 291 291 291 291 290 290 290 290 290 290 290 291 291 291 292 292 293 293 294 294 294 294 294
281 282 283 284 285 287 288 289 290 291 291 292 293 293 293 294 294 294 294 294 294 294 293 293 293 293 293 292 292 292 292 292 292 292 292 292 292 292 292 292 292 292 291 291 291 291 291 291 291 290 290 290 290 290 291 291 291 291 291 291 291 291 291 291 291 291 291 291 291 291 291 291 291 291 292 292 292 293 293 294 294 295 295 295 294 294
282 283 284 285 286 288 289 290 291 292 293 293 294 294 294 294 294 294 294 294 294 293 293 293 293 293 292 292 292 292 292 292 292 292 292 292 292 292 292 292 292 292 291 292 292 291 291 291 291 291 291 291 291 291 291 291 291 291 291 291 291 291 291 291 291 291 291 291 291 291 291 292 292 292 292 293 293 294 294 295 295 295 295 295 295 294
283 284 285 286 288 289 290 292 293 294 294 295 295 295 295 295 295 295 295 294 294 294 293 293 293 293 292 292 292 292 292 292 292 292 292 292 292 292 292 292 292 291 291 292 292 292 292 291 291 291 291 291 291 291 291 291 291 291 291 291 291 291 291 291 292 292 292 292 292 292 292 292 292 293 293 294 294 295 295 296 296 296 295 295 295 294
284 285 286 288 289 291 292 294 295 295 295 296 296 296 296 296 296 295 295 295 295 294 294 293 293 292 292 292 292 292 291 291 291 291 291 291 291 291 291 291 291 291 291 291 292 292 292 292 291 291 291 291 291 291 291 291 291 290 291 291 291 291 291 292 292 292 292 292 292 292 292 293 293 294 294 295 295 296 296 296 296 296 296 296 295 295
285 287 289 290 292 293 295 295 296 296 296 296 296 296 296 296 296 296 296 295 295 294 294 293 293 292 292 292 291 291 291 291 291 290 290 290 290 290 290 291 291 291 291 291 291 292 292 292 292 292 291 291 291 291 291 290 290 291 291 291 291 291 292 292 292 292 292 292 292 293 293 293 294 295 295 296 296 296 296 296 296 296 296 296 296 296
288 289 291 293 294 295 296 296 296 297 297 297 297 297 297 297 297 296 296 295 295 294 293 293 292 292 292 291 291 291 291 290 290 290 290 290 290 290 290 290 290 290 290 291 291 291 291 291 291 292 291 291 291 291 290 291 291 291 291 291 291 292 292 292 292 292 292 292 293 293 294 294 295 295 296 296 297 297 297 297 297 297 297 297 297 296
290 292 293 294 295 296 296 296 297 297 297 297 297 298 298 297 297 296 295 295 295 294 293 293 292 292 291 291 291 290 290 290 289 289 289 289 289 289 289 289 289 290 290 290 290 291 291 291 291 291 291 291 290 290 290 290 291 291 291 291 291 292 292 292 292 292 293 293 294 294 295 295 296 296 297 297 297 297 297 298 298 298 298 298 298 297
291 293 294 295 295 296 296 297 297 297 298 298 298 298 298 298 297 296 296 296 295 294 293 293 292 291 291 290 290 290 290 289 289 289 289 289 288 289 289 289 289 290 290 290 290 290 290 290 290 290 290 290 290 290 290 290 291 291 291 291 292 292 292 292 293 293 294 294 295 295 296 296 297 297 297 297 298 298 298 299 299 299 299 299 299 298
292 293 294 295 295 296 296 297 297 298 298 298 298 299 299 298 298 297 297 296 295 294 293 293 292 292 291 291 290 290 290 290 289 289 289 289 289 289 289 290 290 290 290 290 290 290 289 289 289 289 289 290 290 290 290 290 290 291 291 291 292 292 293 293 294 294 295 295 296 296 297 297 297 298 298 298 299 299 299 300 300 300 300 300 300 299
293 294 294 295 296 296 297 297 298 298 298 299 299 299 299 299 299 298 297 297 296 295 294 294 293 292 292 291 291 291 291 290 290 290 290 290 290 290 290 290 290 290 290 290 290 290 290 289 289 289 290 290 290 290 290 291 291 291 292 292 293 293 294 294 295 296 296 297 297 297 297 298 298 298 299 299 299 300 300 301 301 301 301 301 301 300
294 295 295 296 297 297 298 298 299 299 299 300 300 300 300 300 300 299 298 297 297 296 295 295 294 294 293 293 292 292 292 292 291 291 291 291 291 291 291 291 291 290 290 290 290 290 290 290 291 291 291 291 291 291 291 292 292 293 293 294 294 295 295 296 296 297 297 297 298 298 298 298 299 299 300 300 301 301 302 302 302 303 302 302 302 301
295 296 297 297 298 298 299 299 300 300 301 301 301 301 301 301 301 300 299 298 298 297 296 296 295 295 294 294 294 293 293 293 292 292 292 291 291 291 291 291 291 291 291 291 291 291 291 291 291 292 292 292 292 292 292 293 293 294 294 295 295 296 296 296 297 297 297 298 298 298 299 299 300 300 301 302 302 303 303 304 304 304 304 304 303 303
296 297 297 298 298 299 299 300 301 301 301 302 302 302 302 302 301 301 300 299 298 297 297 296 296 296 295 295 295 294 294 293 293 293 292 292 292 292 292 292 291 291 291 291 291 291 292 292 292 292 293 293 293 293 293 294 294 295 295 295 296 296 297 297 297 297 298 298 298 299 299 300 301 301 302 303 304 304 305 305 306 306 306 305 305 304
296 297 298 298 299 299 300 300 301 301 302 302 303 303 302 302 302 301 300 300 299 298 297 296 296 296 296 295 295 295 294 294 294 293 293 293 293 293 293 293 292 292 292 292 292 292 292 292 293 293 294 294 294 294 294 295 295 296 296 296 297 297 297 297 298 298 298 298 299 299 300 301 302 303 304 305 305 306 307 307 307 307 307 307 306 305
297 297 298 298 299 300 300 301 301 302 302 303 303 303 303 303 302 301 301 300 299 298 297 296 296 296 296 295 295 295 295 294 294 294 294 294 294 294 294 293 293 293 293 293 293 293 293 294 294 294 295 295 295 296 296 296 296 297 297 297 297 298 298 298 298 298 298 299 300 301 302 303 304 305 306 306 307 308 308 308 308 308 308 308 307 306
296 297 298 299 299 300 301 302 302 302 303 303 303 303 303 303 302 302 301 300 299 298 297 296 296 296 296 295 295 295 295 295 295 294 295 294 294 294 294 294 294 294 294 294 294 294 294 295 295 295 296 296 297 297 297 297 298 298 298 298 298 298 298 298 298 299 299 300 301 302 303 304 305 306 307 308 308 309 309 310 310 309 309 308 308 307
296 297 298 299 300 301 301 302 302 303 303 303 303 303 303 303 302 302 301 300 299 298 297 296 296 296 296 296 295 295 295 295 295 294 295 295 294 295 294 294 294 294 294 294 295 295 295 296 296 296 297 297 297 298 298 298 298 298 298 298 298 298 298 298 299 299 300 301 302 303 304 306 307 308 308 309 310 310 310 310 310 310 310 309 308 307
296 297 298 299 300 301 302 302 303 303 303 303 303 303 303 303 302 302 301 300 299 298 297 296 296 296 295 295 295 295 295 295 295 295 295 295 295 295 295 295 295 295 295 295 295 296 296 296 297 297 297 298 298 298 299 299 299 299 298 298 298 298 298 298 299 300 301 302 303 304 306 307 308 309 309 310 311 311 311 311 311 311 310 309 309 308
297 298 299 300 300 301 302 302 303 303 303 303 303 303 303 303 302 301 301 300 299 298 297 296 296 295 295 295 295 295 295 295 295 295 295 295 295 295 295 295 296 296 296 296 296 296 296 297 297 297 298 298 298 299 299 299 299 299 299 299 298 299 299 299 300 301 302 303 304 306 307 308 309 310 310 311 311 312 312 312 312 311 311 310 309 308
297 298 299 300 300 301 302 302 302 303 303 303 303 303 303 302 301 300 300 299 297 297 296 295 294 294 294 295 295 295 295 295 296 295 296 296 296 296 296 296 296 297 297 297 297 297 297 297 297 298 298 298 299 299 299 299 299 299 299 299 299 299 300 300 301 302 303 304 305 307 308 309 309 310 311 312 312 312 313 313 312 312 311 310 309 308
297 298 299 300 300 301 301 302 302 302 302 302 302 302 302 301 300 299 298 296 295 295 294 293 293 293 293 294 294 295 295 296 296 296 296 297 297 297 297 297 297 298 298 298 298 298 298 298 298 298 298 299 299 299 299 300 300 300 299 300 300 300 300 301 302 303 304 305 306 307 308 309 310 311 312 312 313 313 313 313 313 312 312 311 310 308
297 298 299 299 300 300 301 301 301 301 302 302 302 301 301 300 299 298 296 295 294 293 292 292 292 292 292 293 294 294 295 295 296 296 297 297 298 298 298 298 299 299 299 299 299 299 298 298 299 299 299 299 300 300 300 300 300 300 300 300 300 301 301 302 303 303 304 306 307 308 309 310 311 312 312 313 313 314 314 314 313 313 312 311 310 309
297 298 298 299 300 300 300 301 301 301 301 301 301 301 300 299 298 297 295 293 292 291 291 290 290 291 292 292 293 294 295 295 296 297 297 298 298 299 299 300 300 300 300 300 300 300 299 299 299 299 300 300 300 300 300 300 300 300 300 300 301 301 302 302 303 304 305 306 307 309 310 311 312 312 313 314 314 314 314 314 314 313 312 311 310 309
297 298 298 299 299 300 300 301 301 301 301 301 301 300 300 299 297 296 294 292 291 290 289 289 289 290 291 292 293 293 294 295 296 296 297 298 299 299 300 300 301 301 301 300 300 300 300 300 300 300 300 300 300 300 301 301 301 301 301 301 301 301 302 303 304 305 306 307 308 309 310 311 312 313 314 314 315 315 315 314 314 313 312 311 310 309
297 298 299 299 300 300 300 301 301 301 301 301 300 300 299 298 297 295 293 292 290 289 289 289 289 289 290 291 292 293 294 294 295 296 296 297 298 299 300 301 301 301 301 301 301 301 301 301 301 300 300 300 300 300 301 301 301 301 301 301 301 302 302 303 304 305 306 307 309 310 311 312 313 314 314 315 315 315 315 315 314 313 313 312 311 309
298 298 299 299 300 300 300 300 301 301 301 300 300 299 298 297 296 294 293 291 290 289 289 288 288 288 289 290 291 292 293 294 294 295 296 297 298 299 300 301 301 301 302 302 302 302 302 302 301 301 301 300 300 301 301 301 301 301 301 302 302 302 302 303 304 305 306 308 309 310 312 313 314 314 315 315 315 315 315 315 314 313 313 312 311 310
298 298 299 299 300 300 300 300 300 300 300 300 299 299 298 297 295 294 292 291 290 289 288 288 287 288 288 289 290 291 292 293 293 294 295 296 297 298 300 300 301 302 302 303 303 303 303 303 302 302 301 301 301 301 301 301 301 301 302 302 302 302 303 304 305 306 307 308 310 311 312 313 314 315 316 316 316 316 315 315 314 314 313 312 311 310
298 298 299 299 300 300 300 300 300 300 300 299 299 298 297 296 295 293 292 291 290 289 288 287 287 287 287 288 289 290 291 291 292 293 294 295 297 298 299 301 301 302 303 304 304 304 304 304 303 302 302 302 301 301 301 301 301 301 302 302 302 303 303 304 305 307 308 309 310 312 313 314 315 315 316 316 316 316 315 315 314 314 313 312 311 310
298 298 299 299 300 300 300 300 300 299 299 299 298 297 296 296 295 294 292 291 290 289 287 287 286 286 286 287 288 289 290 290 291 292 293 295 296 298 299 300 302 302 303 304 305 305 305 304 304 303 303 302 302 301 301 301 301 301 302 302 302 303 304 305 306 307 309 310 311 312 313 314 315 316 316 316 316 316 315 315 314 313 313 312 311 310
298 298 299 299 299 299 299 299 299 299 298 298 297 296 296 295 294 294 293 292 290 289 288 287 286 286 286 286 287 288 288 289 290 291 293 294 296 297 299 300 301 302 303 304 305 306 305 304 304 303 303 303 302 301 300 301 301 301 301 302 302 303 304 305 307 308 309 311 312 313 314 315 316 316 317 317 317 316 315 314 313 313 312 312 311 310